Location: Newark
(49.2191°N, 12.6671°E)
Time: 05:20:14
(UTC+00:00)

Altair - All Passes

Search period start: 19 January 2020 00:00
Search period end: 29 January 2020 00:00
Orbit: 1502 x 1682 km, 47.2° (Epoch: 18 January)

Date Brightness Start Highest point End Pass type
(mag) Time Alt. Az. Time Alt. Az. Time Alt. Az.
19 Jan - 08:19:21 10° SSW 08:27:56 33° SE 08:36:30 10° ENE daylight
19 Jan - 10:21:37 10° WSW 10:31:38 67° SSE 10:41:35 10° E daylight
19 Jan - 12:26:07 10° W 12:36:19 81° S 12:46:17 10° E daylight
19 Jan - 14:31:00 10° WNW 14:40:49 59° SSW 14:50:20 10° SE daylight
19 Jan - 16:36:33 10° W 16:44:07 25° SW 16:51:28 10° S visible
20 Jan - 07:54:31 10° SSW 08:02:51 31° SE 08:11:12 10° E daylight
20 Jan - 09:56:29 10° SW 10:06:27 64° SSE 10:16:23 10° E daylight
20 Jan - 12:00:54 10° W 12:11:07 81° S 12:21:07 10° E daylight
20 Jan - 14:05:46 10° WNW 14:15:40 62° SSW 14:25:16 10° SE daylight
20 Jan - 16:11:12 10° W 16:19:04 27° SW 16:26:45 10° S visible
21 Jan - 07:29:43 10° S 07:37:47 28° SE 07:45:53 10° E daylight
21 Jan - 09:31:22 10° SW 09:41:17 62° SSE 09:51:12 10° ENE daylight
21 Jan - 11:35:42 10° W 11:45:54 81° S 11:55:56 10° E daylight
21 Jan - 13:40:33 10° W 13:50:31 64° SSW 14:00:12 10° SE daylight
21 Jan - 15:45:52 10° W 15:54:02 30° SW 16:01:59 10° S daylight
22 Jan - 07:04:57 10° S 07:12:43 26° SE 07:20:33 10° E daylight
22 Jan - 09:06:16 10° SW 09:16:07 60° SSE 09:26:00 10° ENE daylight
22 Jan - 11:10:29 10° W 11:20:41 81° S 11:30:45 10° E daylight
22 Jan - 13:15:20 10° W 13:25:21 66° SSW 13:35:06 10° ESE daylight
22 Jan - 15:20:32 10° W 15:28:58 32° SW 15:37:12 10° SSE daylight
23 Jan - 06:40:14 10° S 06:47:40 24° SE 06:55:11 10° E daylight
23 Jan - 08:41:11 10° SW 08:50:58 57° SSE 09:00:47 10° ENE daylight
23 Jan - 10:45:16 10° W 10:55:29 81° S 11:05:34 10° E daylight
23 Jan - 12:50:07 10° W 13:00:11 68° SSW 13:10:00 10° ESE daylight
23 Jan - 14:55:14 10° WNW 15:03:54 34° SW 15:12:21 10° SSE daylight
24 Jan - 06:15:35 10° S 06:22:38 22° SE 06:29:46 10° E visible
24 Jan - 08:16:07 10° SW 08:25:49 55° SSE 08:35:35 10° ENE daylight
24 Jan - 10:20:04 10° WSW 10:30:15 80° S 10:40:22 10° E daylight
24 Jan - 12:24:54 10° W 12:35:00 71° SSW 12:44:52 10° ESE daylight
24 Jan - 14:29:57 10° WNW 14:38:50 37° SW 14:47:29 10° SSE daylight
25 Jan - 05:50:59 10° S 05:57:37 20° SE 06:04:18 10° E visible
25 Jan - 07:51:05 10° SW 08:00:41 52° SSE 08:10:22 10° ENE daylight
25 Jan - 09:54:53 10° WSW 10:05:03 79° S 10:15:10 10° E daylight
25 Jan - 11:59:41 10° W 12:09:49 72° SSW 12:19:44 10° ESE daylight
25 Jan - 14:04:41 10° WNW 14:13:45 39° SW 14:22:35 10° SSE daylight
25 Jan - 16:13:30 10° WSW 16:16:12 11° WSW 16:18:52 10° SW daylight
26 Jan - 05:26:28 10° SSE 05:32:36 18° SE 05:38:47 10° E visible
26 Jan - 07:26:03 10° SW 07:35:32 49° SSE 07:45:09 10° ENE daylight
26 Jan - 09:29:42 10° WSW 09:39:50 78° S 09:49:58 10° E daylight
26 Jan - 11:34:28 10° W 11:44:37 74° SSW 11:54:36 10° ESE daylight
26 Jan - 13:39:25 10° WNW 13:48:39 42° SW 13:57:40 10° SSE daylight
26 Jan - 15:47:15 10° W 15:51:13 13° WSW 15:55:09 10° SSW daylight
27 Jan - 05:02:02 10° SSE 05:07:35 17° SE 05:13:11 10° E visible
27 Jan - 07:01:03 10° SW 07:10:25 47° SE 07:19:55 10° ENE daylight
27 Jan - 09:04:31 10° WSW 09:14:38 77° SSE 09:24:46 10° E daylight
27 Jan - 11:09:15 10° W 11:19:25 76° SSW 11:29:26 10° ESE daylight
27 Jan - 13:14:10 10° WNW 13:23:33 44° SW 13:32:43 10° SSE daylight
27 Jan - 15:21:22 10° W 15:26:14 15° WSW 15:31:03 10° SSW daylight
28 Jan - 04:37:44 10° SSE 04:42:35 15° ESE 04:47:29 10° E visible
28 Jan - 06:36:04 10° SSW 06:45:18 44° SE 06:54:41 10° ENE daylight
28 Jan - 08:39:20 10° WSW 08:49:26 76° SSE 08:59:34 10° E daylight
28 Jan - 10:44:03 10° W 10:54:13 77° SSW 11:04:17 10° ESE daylight
28 Jan - 12:48:56 10° WNW 12:58:26 47° SW 13:07:44 10° SE daylight
28 Jan - 14:55:40 10° W 15:01:14 17° SW 15:06:45 10° SSW daylight
